Location: Larch Mountain
(45.5297°N, 122.0872°W)
Time: 01:24:20
(UTC-07:00)

ISS - All Passes

Search period start: 26 May 2018 00:00
Search period end: 05 June 2018 00:00
Orbit: 402 x 407 km, 51.6° (Epoch: 26 May)

Date Brightness Start Highest point End Pass type
(mag) Time Alt. Az. Time Alt. Az. Time Alt. Az.
26 May - 01:31:30 10° WNW 01:34:47 71° NNE 01:38:02 10° ESE visible
26 May - 03:08:34 10° W 03:10:57 19° SW 03:13:20 10° S night (unlit)
26 May - 19:49:00 10° SSW 19:52:04 38° SE 19:55:08 10° ENE daylight
26 May - 21:25:23 10° W 21:28:31 43° NNW 21:31:41 10° NE visible
26 May - 23:02:41 10° WNW 23:05:32 26° N 23:08:23 10° ENE visible
27 May - 00:39:20 10° NW 00:42:31 47° NNE 00:45:41 10° E visible
27 May - 02:15:57 10° WNW 02:18:55 32° SW 02:21:52 10° SSE visible
27 May - 18:57:25 10° S 19:00:00 22° SE 19:02:36 10° E daylight
27 May - 20:33:00 10° WSW 20:36:14 63° NNW 20:39:30 10° ENE daylight
27 May - 22:10:15 10° WNW 22:13:08 27° N 22:16:01 10° NE visible
27 May - 23:47:08 10° NW 23:50:11 35° NNE 23:53:14 10° E visible
28 May - 01:23:35 10° WNW 01:26:48 57° SW 01:30:00 10° SE visible
28 May - 18:06:31 10° SSE 18:07:59 13° SE 18:09:29 10° ESE daylight
28 May - 19:40:44 10° WSW 19:44:00 81° SSE 19:47:17 10° ENE daylight
28 May - 21:17:45 10° WNW 21:20:44 31° N 21:23:43 10° NE visible
28 May - 22:54:52 10° NW 22:57:48 29° N 23:00:44 10° ENE visible
29 May - 00:31:19 10° WNW 00:34:36 84° NNE 00:37:52 10° ESE visible
29 May - 02:08:40 10° W 02:10:42 15° SW 02:12:42 10° S visible
29 May - 18:48:40 10° SW 18:51:49 46° SE 18:54:59 10° ENE daylight
29 May - 20:25:15 10° W 20:28:21 39° NNW 20:31:28 10° NE daylight
29 May - 22:02:31 10° WNW 22:05:23 27° N 22:08:14 10° ENE visible
29 May - 23:39:06 10° NW 23:42:19 54° NNE 23:45:32 10° ESE visible
30 May - 01:15:51 10° W 01:18:39 27° SW 01:21:27 10° SSE visible
30 May - 17:56:53 10° SSW 17:59:41 26° SE 18:02:30 10° E daylight
30 May - 19:32:48 10° WSW 19:36:00 54° NNW 19:39:14 10° ENE daylight
30 May - 21:10:05 10° WNW 21:12:57 27° N 21:15:48 10° ENE daylight
30 May - 22:46:52 10° NW 22:49:58 38° NNE 22:53:04 10° E visible
31 May - 00:23:21 10° WNW 00:26:31 47° SW 00:29:40 10° SE visible
31 May - 17:05:36 10° S 17:07:37 15° SE 17:09:39 10° E daylight
31 May - 18:40:26 10° WSW 18:43:43 85° NNW 18:47:00 10° ENE daylight
31 May - 20:17:34 10° WNW 20:20:30 29° N 20:23:26 10° NE daylight
31 May - 21:54:35 10° NW 21:57:34 31° N 22:00:32 10° ENE visible
31 May - 23:31:02 10° WNW 23:34:19 82° SSW 23:37:34 10° ESE visible
01 Jun - 01:08:48 10° WSW 01:10:18 13° SW 01:11:48 10° SSW visible
01 Jun - 17:48:14 10° SW 17:51:28 57° SE 17:54:42 10° ENE daylight
01 Jun - 19:25:01 10° W 19:28:04 35° NNW 19:31:08 10° NE daylight
01 Jun - 21:02:15 10° NW 21:05:07 27° N 21:08:00 10° ENE daylight
01 Jun - 22:38:45 10° WNW 22:42:01 62° NNE 22:45:15 10° ESE visible
02 Jun - 00:15:39 10° W 00:18:15 22° SW 00:20:50 10° S visible
02 Jun - 16:56:18 10° SSW 16:59:16 32° SE 17:02:15 10° ENE daylight
02 Jun - 18:32:29 10° W 18:35:40 47° NNW 18:38:52 10° NE daylight
02 Jun - 20:09:47 10° WNW 20:12:39 27° N 20:15:30 10° ENE daylight
02 Jun - 21:46:30 10° NW 21:49:39 43° NNE 21:52:47 10° E visible
02 Jun - 23:23:02 10° WNW 23:26:07 38° SW 23:29:10 10° SSE visible
03 Jun - 16:04:46 10° S 16:07:08 19° SE 16:09:32 10° E daylight
03 Jun - 17:40:02 10° WSW 17:43:19 72° NNW 17:46:36 10° ENE daylight
03 Jun - 19:17:15 10° WNW 19:20:10 28° N 19:23:03 10° NE daylight
03 Jun - 20:54:12 10° NW 20:57:13 33° NNE 21:00:14 10° E daylight
03 Jun - 22:30:38 10° WNW 22:33:53 68° SSW 22:37:07 10° SE visible
04 Jun - 00:09:26 10° SW 00:09:48 10° SW 00:10:10 10° SW visible
04 Jun - 15:14:23 10° SE 15:15:04 10° SE 15:15:46 10° ESE daylight
04 Jun - 16:47:45 10° SW 16:51:00 70° SSE 16:54:16 10° ENE daylight
04 Jun - 18:24:40 10° W 18:27:41 33° NNW 18:30:42 10° NE daylight
04 Jun - 20:01:49 10° NW 20:04:44 28° N 20:07:38 10° ENE daylight
04 Jun - 21:38:18 10° WNW 21:41:35 73° NNE 21:44:50 10° ESE visible
04 Jun - 23:15:24 10° W 23:17:44 18° SW 23:20:03 10° S visible
